Regional Weather Roundup
Issued by NWS

Home | Current Version | Previous Version | Text Only | Print | Product List | Glossary Off
Versions: 1 2 3 4 5 6 7 8 9 10 11 12 13 14 15 16 17 18 19 20 21 22 23 24 25 26 27 28 29 30 31 32 33 34 35 36 37 38 39 40 41 42 43 44 45 46 47 48 49 50

479
ASUS43 KOAX 192002
RWRNE

WEATHER ROUNDUP FOR NEBRASKA
NATIONAL WEATHER SERVICE OMAHA NE
200 PM CST FRI JAN 19 2018

NOTES: SATELLITE DATA IS BEING USED TO AUGMENT CLOUD COVER ABOVE
       12000 FEET.
       "FAIR" INDICATES FEW OR NO CLOUDS BELOW 12,000 FEET WITH NO
       SIGNIFICANT WEATHER AND/OR OBSTRUCTIONS TO VISIBILITY.


NEZ001>004-019>022-054>056-192100-
NEBRASKA PANHANDLE

CITY           SKY/WX    TMP DP  RH WIND       PRES   REMARKS
SCOTTSBLUFF    CLOUDY    38  32  79 VRB3      29.67F
ALLIANCE       CLOUDY    42  35  76 CALM      29.66F
CHADRON        CLOUDY    45  31  58 NE9       29.68F
GORDON         FAIR      46  32  56 N8        29.67S
KIMBALL        CLOUDY    51  27  40 W8        29.71F
SIDNEY         CLOUDY    52  26  36 NW7       29.68F
$$

NEZ057>060-069>072-079>082-192100-
SOUTHWEST NEBRASKA

CITY           SKY/WX    TMP DP  RH WIND       PRES   REMARKS
NORTH PLATTE   CLOUDY    50  30  46 W5        29.64F
IMPERIAL       CLOUDY    55  29  36 NW3       29.65F
LEXINGTON      CLOUDY    50  34  54 N5        29.64S
MCCOOK         CLOUDY    54  25  32 SW3       29.64F
OGALLALA       CLOUDY    50  33  53 W7        29.66F
$$

NEZ005>010-023>029-035>040-094-192100-
NORTH CENTRAL NEBRASKA

CITY           SKY/WX    TMP DP  RH WIND       PRES   REMARKS
VALENTINE      CLOUDY    52  33  48 NW16      29.64S
AINSWORTH      CLOUDY    53  34  49 NW16G22   29.61F
BROKEN BOW     CLOUDY    52  30  43 S3        29.61F
O`NEILL        CLOUDY    52  35  51 W7        29.59S
ORD            CLOUDY    63  29  27 SW6       29.59F
THEDFORD       CLOUDY    54  34  47 W7        29.62F
$$

NEZ041-046>049-061>064-073>077-083>087-192100-
SOUTH CENTRAL NEBRASKA

CITY           SKY/WX    TMP DP  RH WIND       PRES   REMARKS
GRAND ISLAND   CLOUDY    49  31  49 SW7       29.64F
AURORA         CLOUDY    50  30  46 SW10      29.64F
HASTINGS       CLOUDY    52  28  39 S8        29.65F
HEBRON         CLOUDY    50  28  43 S10       29.69S
HOLDREGE       CLOUDY    53  29  39 SW3       29.64F
KEARNEY        CLOUDY    44  32  62 S12       29.64F
YORK           CLOUDY    48  30  49 SW12      29.65F
$$

NEZ011>018-030>034-042>045-192100-
NORTHEAST NEBRASKA

CITY           SKY/WX    TMP DP  RH WIND       PRES   REMARKS
NORFOLK        CLOUDY    53  34  48 S15       29.57F
ALBION         CLOUDY    59  35  39 SW8       29.60F
BLAIR          CLOUDY    52  30  43 S12       29.63F
COLUMBUS       CLOUDY    53  27  36 SW13      29.64S
FREMONT        CLOUDY    52  26  36 S8        29.64S
TEKAMAH        CLOUDY    54  28  36 SW10      29.63S
WAYNE          CLOUDY    58  33  39 SW14      29.56F
$$

NEZ050>053-065>068-078-088>093-192100-
SOUTHEAST NEBRASKA

CITY           SKY/WX    TMP DP  RH WIND       PRES   REMARKS
LINCOLN        CLOUDY    50  26  39 S12       29.67F
OMAHA EPPLEY   CLOUDY    46  29  51 S16       29.65F
BEATRICE       CLOUDY    43  31  61 S15       29.70F
FALLS CITY     CLOUDY    48  27  44 S14G23    29.73F
NEBRASKA CITY  CLOUDY    44  31  60 SW13G20   29.70F
PLATTSMOUTH    CLOUDY    41  31  68 S13       29.68F
$$

NEZ044-045-051>053-067-192100-
OMAHA AREA

CITY           SKY/WX    TMP DP  RH WIND       PRES   REMARKS
OMAHA EPPLEY   CLOUDY    46  29  51 S16       29.65F
BLAIR          CLOUDY    52  30  43 S12       29.63F
FREMONT        CLOUDY    52  26  36 S8        29.64S
MILLARD        CLOUDY    50  31  47 S10       29.66F
OFFUTT AFB     CLOUDY    43  29  59 S12       29.67F
PLATTSMOUTH    CLOUDY    41  31  68 S13       29.68F
WAHOO          FAIR      53  25  33 S13       29.63F
$$




USA.gov is the U.S. government's official web portal to all federal, state and local government web resources and services.